Location: Czu?�w
(50.1404°N, 18.9919°E)
Time: 11:50:59
(UTC+00:00)

FALCON 9 DEB - Pass Details

Date: 27 October 2020
Orbit: 382 x 399 km, 53.0° (Epoch: 24 November)

Event Time Altitude Azimuth Distance (km) Brightness Sun altitude
Rises 16:59:04 0° 236° (SW) 2,311 7.9 -15.0°
Reaches altitude 10° 17:01:09 10° 233° (SW) 1,453 6.6 -15.3°
Maximum altitude 17:04:21 60° 153° (SSE) 464 3.1 -15.8°
Enters shadow 17:05:11 42° 95° (E) 585 3.3 -16.0°
